Asheville, NC

8:41 AM EDT on March 26, 2017 (GMT -0400)
Asheville Regional

Weather History for KAVL - November, 2013

Change the Weather History Date:

Tuesday, November 5, 2013

  Actual Average Record
Temperature  
Mean Temperature 45 °F 50 °F  
Max Temperature 58 °F 63 °F 78 °F (1978)
Min Temperature 32 °F 39 °F 20 °F (1991)
Degree Days  
Heating Degree Days 20 15  
Month to date heating degree days 75 70  
Since 1 July heating degree days 326 405  
Cooling Degree Days 0 0  
Month to date cooling degree days 0 0  
Year to date cooling degree days 860 862  
Moisture  
Dew Point 33 °F    
Average Humidity 62    
Maximum Humidity 96    
Minimum Humidity 28    
Precipitation  
Precipitation 0.00 in 0.11 in 2.01 in (1938)
Month to date precipitation 0.11 0.53  
Year to date precipitation 64.11 38.86  
Snow  
Snow 0.00 in 0.00 in 0.30 in (1962)
Month to date snowfall 0.0 0.0  
Since 1 July snowfall T 0.0  
Since 1 September snowfall T 0.0  
Snow Depth 0.00 in    
Sea Level Pressure  
Sea Level Pressure 30.48 in    
Wind  
Wind Speed 3 mph (South)    
Max Wind Speed 13 mph    
Max Gust Speed 23 mph    
Visibility 10 miles    
Events      
T = Trace of Precipitation, MM = Missing Value Source: NWS Daily Summary

Daily Weather History Graph

Daily Weather History Graph

Search for Another Location

Airport or City:

Trip Planner

Search our weather history database for the weather conditions in past years. The results will help you decide how hot, cold, wet, or windy it might be!

Date:

Astronomy

Nov. 05, 2013 Rise Set
Actual Time 6:55 AM EST 5:31 PM EST
Civil Twilight 6:29 AM EST 5:57 PM EST
Nautical Twilight 5:59 AM EST 6:27 PM EST
Astronomical Twilight 5:29 AM EST 6:57 PM EST
Moon 9:06 AM EST (11/5) 7:34 PM EST (11/5)
Length of Visible Light 11h 28m
Length of Day
10h 35m
Waxing Crescent, 6% of the Moon is Illuminated
Nov 5
Waxing Crescent
Nov 10
First Quarter
Nov 17
Full
Nov 25
Last Quarter
Dec 2
New

Hourly Weather History & Observations

Time (EST) Temp. Windchill Dew Point Humidity Pressure Visibility Wind Dir Wind Speed Gust Speed Precip Events Conditions
12:54 AM 36.0 °F - 32.0 °F 86% 30.49 in 10.0 mi Calm Calm - N/A   Clear
1:54 AM 36.0 °F - 32.0 °F 86% 30.49 in 10.0 mi Calm Calm - N/A   Clear
2:54 AM 36.0 °F - 32.0 °F 86% 30.48 in 10.0 mi Calm Calm - N/A   Clear
3:54 AM 35.1 °F - 32.0 °F 89% 30.48 in 10.0 mi Calm Calm - N/A   Clear
4:54 AM 34.0 °F - 30.9 °F 89% 30.51 in 10.0 mi Calm Calm - N/A   Clear
5:54 AM 32.0 °F - 30.9 °F 96% 30.51 in 10.0 mi Calm Calm - N/A   Clear
6:54 AM 34.0 °F - 32.0 °F 92% 30.52 in 10.0 mi Calm Calm - N/A   Clear
7:54 AM 35.1 °F - 32.0 °F 89% 30.52 in 10.0 mi Calm Calm - N/A   Clear
8:54 AM 37.9 °F - 32.0 °F 79% 30.54 in 10.0 mi Calm Calm - N/A   Clear
9:54 AM 41.0 °F 39.0 °F 32.0 °F 70% 30.54 in 10.0 mi SSE 3.5 mph - N/A   Clear
10:54 AM 45.0 °F 41.2 °F 30.9 °F 58% 30.53 in 10.0 mi South 6.9 mph - N/A   Clear
11:54 AM 48.9 °F - 30.0 °F 48% 30.50 in 10.0 mi Variable 5.8 mph - N/A   Clear
12:54 PM 52.0 °F - 30.0 °F 43% 30.47 in 10.0 mi SSW 8.1 mph - N/A   Clear
1:54 PM 54.0 °F - 27.0 °F 35% 30.45 in 10.0 mi SSW 8.1 mph - N/A   Clear
2:54 PM 57.0 °F - 24.1 °F 28% 30.42 in 10.0 mi SSE 8.1 mph - N/A   Clear
3:54 PM 55.0 °F - 35.1 °F 47% 30.43 in 10.0 mi South 10.4 mph - N/A   Clear
4:54 PM 53.1 °F - 34.0 °F 48% 30.43 in 10.0 mi SSE 6.9 mph - N/A   Clear
5:54 PM 48.0 °F - 35.1 °F 61% 30.44 in 10.0 mi South 4.6 mph - N/A   Clear
6:54 PM 48.0 °F - 36.0 °F 63% 30.46 in 10.0 mi Calm Calm - N/A   Clear
7:54 PM 45.0 °F - 36.0 °F 71% 30.46 in 10.0 mi Calm Calm - N/A   Clear
8:54 PM 44.1 °F 42.5 °F 37.0 °F 76% 30.46 in 10.0 mi South 3.5 mph - N/A   Clear
9:54 PM 42.1 °F - 35.1 °F 76% 30.47 in 10.0 mi Calm Calm - N/A   Clear
10:18 PM 42.8 °F - 35.6 °F 76% 30.45 in 10.0 mi Calm Calm - N/A   Mostly Cloudy
10:54 PM 43.0 °F - 36.0 °F 76% 30.45 in 10.0 mi Calm Calm - N/A   Overcast
11:23 PM 44.6 °F - 35.6 °F 71% 30.43 in 10.0 mi Calm Calm - N/A   Overcast
11:54 PM 45.0 °F - 37.0 °F 74% 30.43 in 10.0 mi Calm Calm - N/A   Overcast